Location: Lancaster
(34.6980°N, 118.1360°W)
Time: 09:49:11
(UTC-07:00)

Vanguard 3 - All Passes

Search period start: 20 July 2018 00:00
Search period end: 30 July 2018 00:00
Orbit: 508 x 3264 km, 33.3° (Epoch: 20 July)

Date Brightness Start Highest point End Pass type
(mag) Time Alt. Az. Time Alt. Az. Time Alt. Az.
20 Jul - 13:43:32 10° SSE 13:51:19 14° SE 13:58:26 10° ESE daylight
20 Jul - 15:50:08 10° SSW 16:06:30 38° SSE 16:17:59 10° E daylight
20 Jul - 18:04:59 10° WSW 18:21:20 66° SSE 18:30:39 10° E daylight
20 Jul - 20:22:36 10° W 20:35:04 83° S 20:41:46 10° E visible
20 Jul - 22:39:23 10° W 22:47:20 54° SSW 22:52:05 10° SE visible
21 Jul - 14:35:45 10° SSW 14:50:31 27° SE 15:02:23 10° E daylight
21 Jul - 16:48:07 10° SW 17:05:45 55° SSE 17:16:51 10° E daylight
21 Jul - 19:05:05 10° WSW 19:20:18 80° S 19:28:35 10° E daylight
21 Jul - 21:22:49 10° W 21:33:31 75° SSW 21:39:23 10° ESE visible
21 Jul - 23:39:14 10° W 23:44:47 26° SW 23:48:39 10° SSE visible
22 Jul - 13:23:40 10° S 13:34:32 17° SE 13:44:25 10° ESE daylight
22 Jul - 15:32:09 10° SSW 15:49:46 43° SSE 16:02:24 10° E daylight
22 Jul - 17:47:32 10° WSW 18:04:57 72° SSE 18:15:06 10° E daylight
22 Jul - 20:05:34 10° W 20:19:06 84° S 20:26:23 10° E daylight
22 Jul - 22:22:48 10° W 22:31:31 50° SSW 22:36:37 10° SE visible
23 Jul - 14:17:31 10° SSW 14:33:38 32° SE 14:46:54 10° E daylight
23 Jul - 16:30:29 10° SW 16:49:07 61° SSE 17:01:12 10° E daylight
23 Jul - 18:47:50 10° W 19:04:06 83° S 19:13:06 10° E daylight
23 Jul - 21:05:56 10° W 21:17:38 72° SSW 21:23:59 10° ESE visible
23 Jul - 23:23:00 10° W 23:28:51 24° SW 23:32:54 10° SSE visible
24 Jul - 13:04:47 10° S 13:17:36 21° SE 13:29:29 10° E daylight
24 Jul - 15:14:24 10° SW 15:32:54 49° SSE 15:46:39 10° E daylight
24 Jul - 17:30:07 10° WSW 17:48:29 76° SSE 17:59:29 10° E daylight
24 Jul - 19:48:26 10° W 20:03:03 83° S 20:10:57 10° E daylight
24 Jul - 22:06:06 10° W 22:15:35 46° SSW 22:21:06 10° SE visible
25 Jul - 11:57:19 10° SE 12:01:50 11° SE 12:06:20 10° ESE daylight
25 Jul - 13:59:35 10° SSW 14:16:37 37° SE 14:31:08 10° E daylight
25 Jul - 16:12:59 10° SW 16:32:21 66° SSE 16:45:26 10° E daylight
25 Jul - 18:30:34 10° W 18:47:48 85° S 18:57:34 10° E daylight
25 Jul - 20:48:56 10° W 21:01:38 68° SSW 21:08:32 10° ESE visible
25 Jul - 23:06:41 10° W 23:12:48 22° SW 23:17:04 10° S visible
26 Jul - 12:46:29 10° S 13:00:33 25° SE 13:14:00 10° E daylight
26 Jul - 14:56:50 10° SW 15:15:55 54° SSE 15:30:44 10° E daylight
26 Jul - 17:12:48 10° WSW 17:31:55 80° S 17:43:48 10° E daylight
26 Jul - 19:31:16 10° W 19:46:55 81° S 19:55:28 10° ESE daylight
26 Jul - 21:49:18 10° W 21:59:33 43° SSW 22:05:31 10° SE visible
27 Jul - 11:36:42 10° SSE 11:44:51 14° SE 11:53:10 10° ESE daylight
27 Jul - 13:41:57 10° SSW 13:59:28 42° SE 14:15:10 10° E daylight
27 Jul - 15:55:38 10° WSW 16:15:30 71° SSE 16:29:33 10° E daylight
27 Jul - 18:13:19 10° W 18:31:25 85° S 18:41:58 10° E daylight
27 Jul - 20:31:50 10° W 20:45:31 65° SSW 20:53:01 10° ESE visible
27 Jul - 22:50:19 10° W 22:56:39 20° SW 23:01:09 10° S visible
28 Jul - 12:28:38 10° S 12:43:22 29° SE 12:58:09 10° E daylight
28 Jul - 14:39:30 10° SW 14:58:49 59° SSE 15:14:42 10° E daylight
28 Jul - 16:55:32 10° WSW 17:15:14 83° S 17:28:01 10° E daylight
28 Jul - 19:14:02 10° W 19:30:39 79° SSW 19:39:55 10° ESE daylight
28 Jul - 21:32:25 10° W 21:43:22 40° SW 21:49:51 10° SSE visible
29 Jul - 11:17:50 10° SSE 11:27:46 17° SE 11:38:19 10° E daylight
29 Jul - 13:24:36 10° SSW 13:42:15 46° SE 13:58:59 10° E daylight
29 Jul - 15:38:26 10° WSW 15:58:33 75° SSE 16:13:35 10° E daylight
29 Jul - 17:56:05 10° W 18:14:56 85° S 18:26:18 10° E daylight
29 Jul - 20:14:41 10° W 20:29:17 61° SSW 20:37:26 10° SE visible
29 Jul - 22:33:55 10° W 22:40:24 19° SW 22:45:06 10° S visible
